Home > Weather > Lagos > Past weeks

Flag for Nigeria Past Weather in Lagos, Nigeria — Yesterday and Last 2 Weeks

Now
79 °F

Scattered clouds.


Feels Like: 82 °F
Forecast: 73 / 82 °F
Wind: 2 mph from North

Location: Lagos / Ikeja

Current Time: Jun 27, 2016 at 4:00:41 PM

Latest Report: Jun 27, 2016 at 3:00 PM


Visibility: 5 mi

Pressure: 29.98 "Hg

Humidity: 89%

Dew Point: 75 °F

Location of LagosLocation

Past Weather in Lagos — Graph

°F

Lagos Temperature Yesterday

Maximum temperature yesterday: 86 °F (at 2:00 PM)
Minimum temperature yesterday: 73 °F (at 6:00 AM)
Average temperature yesterday: 79 °F

High & Low Weather Summary for the Past Weeks

 TemperatureHumidityPressure
High90 °F (Jun 18, 4:00 PM)100% (Jun 12, 8:00 PM)30.09 "Hg (Jun 12, 8:00 PM)
Low72 °F (Jun 16, 6:00 AM)66% (Jun 16, 4:00 PM)29.89 "Hg (Jun 19, 4:00 PM)
Average79 °F88%30.01 "Hg
* Reported Jun 12 3:00 PM — Jun 27 3:00 PM, Lagos, Weather by CustomWeather, © 2016

Note: Actual official high and low records may vary slightly from our data, if they occured in-between our weather recording intervals... More about our weather records

Advertising

Lagos Weather History for the Previous 24 Hours

Scroll right to see more
 ConditionsComfort  
Time TempWeatherWind HumidityBarometerVisibility
3:00 PM
Mon, Jun 27
79 °FScattered clouds.2 mph89%29.98 "Hg5 mi
2:00 PM79 °FDrizzle. Partly sunny.5 mph89%30.01 "Hg5 mi
1:00 PM81 °FLight rain. Partly sunny.3 mph84%30.01 "Hg4 mi
12:00 PM82 °FPartly sunny.6 mph84%30.01 "HgN/A
11:00 AM81 °FPartly sunny.3 mph89%30.04 "HgN/A
10:00 AM79 °FPartly sunny.2 mph94%30.04 "Hg5 mi
9:00 AM77 °FPartly sunny.3 mph94%30.04 "Hg5 mi
8:00 AM75 °FRain. Partly sunny.7 mph100%30.04 "Hg1 mi
7:00 AM77 °FPassing clouds.5 mph94%30.01 "Hg5 mi
6:00 AM77 °FPassing clouds.5 mph94%29.98 "Hg4 mi
5:00 AM77 °FPassing clouds.2 mph89%29.98 "Hg5 mi
4:00 AM77 °FPassing clouds.3 mph89%29.98 "Hg5 mi
3:00 AM77 °FPassing clouds.5 mph89%29.98 "HgN/A
2:00 AM77 °FPassing clouds.3 mph94%29.98 "HgN/A
1:00 AM77 °FPassing clouds.5 mph94%29.98 "HgN/A
12:00 AM77 °FPassing clouds.6 mph89%29.98 "HgN/A
11:00 PM
Sun, Jun 26
77 °FPassing clouds.6 mph89%30.01 "HgN/A
10:00 PM77 °FPassing clouds.2 mph89%30.01 "HgN/A
9:00 PM79 °FPassing clouds.3 mph84%30.01 "HgN/A
8:00 PM79 °FPassing clouds.9 mph89%29.98 "HgN/A
7:00 PM81 °FPassing clouds.7 mph84%29.95 "HgN/A
6:00 PM82 °FScattered clouds.7 mph74%29.95 "HgN/A
5:00 PM82 °FScattered clouds.6 mph79%29.95 "HgN/A
4:00 PM84 °FPartly sunny.10 mph74%29.95 "HgN/A
Weather by CustomWeather, © 2016

See weather overviewHow to use our weather pages